Other Public Products
Issued by NWS Grand Forks, ND

Home | Current Version | Previous Version | Text Only | Print | Product List | Glossary On
Versions: 1 2 3 4 5 6 7 8 9 10 11 12 13 14 15 16 17 18 19 20 21 22 23 24 25 26 27 28 29 30 31 32 33 34 35 36 37 38 39 40 41 42 43 44 45 46 47 48 49 50
000
FPUS83 KFGF 271531
OPUFGF
PRAIRIE TO PINES WEATHER ROUNDUP
NATIONAL WEATHER SERVICE EASTERN NORTH DAKOTA/GRAND FORKS ND
1000 AM CDT MON MAR 27 2017

 **SATELLITE DATA USED TO AUGMENT SKY COVER AT AUTOMATED STATIONS**
 *****  WEATHER ACROSS EASTERN NORTH DAKOTA  *****

CITY           SKY/WX    TMP DP  RH WIND       PRES   REMARKS
GRAND FORKS    FOG       37  37 100 CALM      30.00R VSB 1/4
GRAND FORKS AF FOG       36  36 100 SE3       30.01R VSB 1/2
GRAND CITY NWS NOT AVBL
BUXTON         NOT AVBL
DEVILS LAKE    SNOW      32  32 100 SE9       29.95R VSB 1/4 WCI  24
FARGO          FOG       35  35 100 CALM      30.00R VSB<1/4
WAHPETON ARPT    N/A     41  36  81 CALM      30.00R
$$

 *****  WEATHER ACROSS CENTRAL AND WESTERN NORTH DAKOTA  *****

CITY           SKY/WX    TMP DP  RH WIND       PRES   REMARKS
JAMESTOWN      FAIR      39  38  96 E3        29.95R
BISMARCK       FAIR      43  35  73 CALM      29.94R
MINOT          FOG       34  33  96 NW8       29.92R VSB 1/4
MINOT AFB      FOG       31  31  99 NW7       29.91R VSB 1/4 WCI  24
GARRISON         N/A     40  35  83 CALM      29.90S
WILLISTON      FAIR      39  30  70 NE3       29.90R
DICKINSON      FAIR      42  35  76 SE3       29.88R
HETTINGER      FAIR      45  36  70 SW7       29.92R
$$

 *****  OTHER OBSERVATIONS NORTHEAST NORTH DAKOTA  *****

CITY           SKY/WX    TMP DP  RH WIND       PRES   REMARKS
WALHALLA       NOT AVBL
LANGDON        FOG       34  34 100 SE8       29.96R VSB 1/4
CAVALIER       FOG       32  34 100 S7        30.01R VSB<1/4
GRAFTON        FOG       34  34 100 SE8       30.02S VSB<1/4
CANDO          NOT AVBL
FORT TOTTEN      N/A     42  42 100 SE7       29.95S
ROLLA          PTSUNNY   34  34 100 CALM      29.94R
RUGBY          NOT AVBL
 ***** THE ABOVE OBSERVATIONS ARE NON NWS ARE NOT QUALITY
        CONTROLLED AND MAY MIS-REPORT RAIN FOR SNOW...
$$

 *****  OTHER OBSERVATIONS SOUTHEAST NORTH DAKOTA *****

CITY           SKY/WX    TMP DP  RH WIND       PRES   REMARKS
COOPERSTOWN    FOG       37  37 100 E7        29.98S VSB 1/4
VALLEY CITY    FAIR      41  41 100 E6        29.98S
OAKES          NOT AVBL
GWINNER        SUNNY     45  39  81 MISG      29.98R
SHEYENNE NWR     N/A     43  38  81 E5        29.95S
BUFFALO        NOT AVBL
WYNDMERE         N/A     41  39  93 E3          N/A
 ***** THE ABOVE OBSERVATIONS ARE NON NWS ARE NOT QUALITY
       CONTROLLED AND MAY MIS-REPORT RAIN FOR SNOW...
$$

  *****  WEATHER ACROSS NORTHERN MINNESOTA  *****

CITY           SKY/WX    TMP DP  RH WIND       PRES   REMARKS
FLAG ISLAND    FAIR      34  30  86 CALM      30.00R
WARROAD        FAIR      34  28  80 CALM      30.01R
ROSEAU         FAIR      37  34  87 CALM      30.00R
HALLOCK        FOG       30  30 100 SE6       30.01R VSB<1/4 WCI  24
THF RVR FALLS  FOG       34  33  96 CALM      30.01R VSB<1/4
HALSTAD          N/A     35  36 100 CALM        N/A
FOSSTON        FOG       37  36  93 CALM      30.00R VSB<1/4
BAUDETTE       FOG       32  31  96 CALM      29.99R VSB<1/4
WASKISH        FAIR      39  37  93 CALM      30.00S
CROOKSTON      FOG       36  36 100 CALM      30.02R VSB 1/4
$$
  *****  WEATHER ACROSS CENTRAL AND WEST MINNESOTA  *****

CITY           SKY/WX    TMP DP  RH WIND       PRES   REMARKS
BEMIDJI        FAIR      41  34  76 E6        29.98S
PARK RAPIDS    FAIR      45  33  63 VRB5      29.97R
WADENA         PTSUNNY   43  34  70 CALM      29.98S
DETROIT LAKES  FAIR      45  36  70 CALM      30.00R
MOORHEAD       FOG       37  37 100 CALM      30.01S VSB 3/4
FERGUS FALLS   FAIR      43  37  81 CALM      30.03R
ELBOW LAKE     CLOUDY    38  37  94 N3        29.99S
MORRIS MN      FAIR      41  37  87 CALM      29.98R
STAPLES        CLOUDY    43  34  70 NW3       29.98R
WHEATON        FAIR      39  36  87 CALM      30.02R
$$
  *****  WEATHER ELSEWHERE ACROSS MINNESOTA  *****

CITY           SKY/WX    TMP DP  RH WIND       PRES   REMARKS
DULUTH         CLOUDY    37  34  89 N8        29.97R
INTRNTL FALLS  FAIR      39  33  79 CALM      29.99R
ELY            FAIR      39  30  70 N3        29.97R
CLOQUET        PTSUNNY   37  36  93 N5        29.98R
BRAINERD       PTSUNNY   40  33  76 N3        29.98R
HIBBING        CLOUDY    35  32  88 N3        29.97R
ALEXANDRIA     CLOUDY    41  37  86 N3        29.98S
SAINT CLOUD    FAIR      44  37  76 N5        29.97R
MINNEAPOLIS    PTSUNNY   41  33  73 N3        29.97S
$$

  *****  WEATHER ACROSS SOUTH DAKOTA  *****

CITY           SKY/WX    TMP DP  RH WIND       PRES   REMARKS
SIOUX FALLS    CLOUDY    46  39  76 CALM      29.97F
BROOKINGS      FAIR      39  37  93 W3        29.97R
WATERTOWN      CLOUDY    40  37  89 CALM      29.96R
HURON          CLOUDY    44  41  89 S6        29.98R
SISSETON         N/A     42  39  89 S5        29.98R
ABERDEEN       FAIR      45  38  76 S6        29.97R
MITCHELL       CLOUDY    41  40  96 SW3       29.99S
PIERRE         CLOUDY    44  39  82 E3        29.94R
MOBRIDGE       PTSUNNY   41  37  86 SE6       29.92R FOG
RAPID CITY     FAIR      36  34  92 E3        29.89F
$$

  *****  SOME WEATHER IN NEARBY STATES *****

CITY           SKY/WX    TMP DP  RH WIND       PRES   REMARKS
GLASGOW MT     PTSUNNY   45  28  51 E8        29.86R
GREAT FALLS MT FAIR      43  31  62 SW9       29.81S
CHEYENNE WY    FAIR      40  38  93 SW8       29.94R
SCOTTSBLUFF NE FAIR      39  34  82 SE6       29.92R
OMAHA NE       CLOUDY    46  39  76 N7        29.98R
DES MOINES IA  CLOUDY    46  41  82 NE10      29.92F
DAVENPORT IA   CLOUDY    48  45  89 NE6       29.93S
CHICAGO IL     FOG       47  45  93 E5        29.95R VSB 1/2
EAU CLAIRE WI  CLOUDY    39  34  82 NE5       29.95R
LA CROSSE WI   FOG       43  42  97 NW6       29.94S VSB 1
$$

  *****  SOME NATIONAL WEATHER *****

CITY           SKY/WX    TMP DP  RH WIND       PRES   REMARKS
LA GUARDIA NY  CLOUDY    41  39  93 NE9       30.08F FOG
RALEIGH NC     PTSUNNY   65  59  81 SW8       30.14F
ATLANTA GA     PTSUNNY   68  62  81 SW7       30.13S
NEW ORLEANS LA PTSUNNY   77  70  79 S13G22    30.00S
OKLAHOMA CITY  CLOUDY    52  47  83 N17       29.94R
ALBUQUERQUE NM FAIR      48  27  44 N3        30.03R
SALT LAKE CITY PTSUNNY   47  38  71 S8        29.88S
LOS ANGELES CA PTSUNNY   57  53  86 NE5       30.03R
BOISE ID       FAIR      43  40  89 W10       29.96R
SEATTLE WA     MOCLDY    45  42  89 S13       29.99R
$$

*** WEATHER ACROSS MANITOBA...SASKATCHEWAN AND ONTARIO ***
                ***ONTARIO***

CITY           SKY/WX    TMP DP  RH WIND       PRES   REMARKS
GERALDTON      PTSUNNY   39  28  65 NW3       29.92R
THUNDER BAY    CLOUDY    39  36  87 SW6       29.96R
SIOUX LOOKOUT  PTSUNNY   36  28  75 NW2       29.99R
TORONTO        CLOUDY    50  48  93 S3        29.88R FOG
BIG TROUT LK   CLOUDY    23  18  80 N9        30.02R WCI  13
PICKLE LAKE    MOSUNNY   32  23  69 CALM      30.00R
DRYDEN         MOSUNNY   37  30  75 SE3       29.98S
KENORA         PTSUNNY   37  32  81 E7        30.00R
$$
                *** MANITOBA***

CITY           SKY/WX    TMP DP  RH WIND       PRES   REMARKS
BRANDON        CLOUDY    36  32  87 E15       29.98R
DAUPHIN        CLOUDY    32  30  93 E7        30.05R
ISLAND LAKE    CLOUDY    23  16  74 N10       30.11R WCI  12
PILOT MOUND      N/A     34  32  93 E12         N/A
THE PAS        CLOUDY    25  18  74 E7        30.14R WCI  17
THOMPSON       FLURRIES  12   7  79 N8        30.19R WCI   1
WINNIPEG       PTSUNNY   34  28  80 E5        30.02R
LYNN LAKE      SUNNY     14  12  92 E5        30.18R WCI   6
CHURCHILL      CRYSTALS   3   1  92 N13       30.23R WCI -14
GILLAM         FLURRIES  14   7  73 N10       30.15R WCI   1
$$
                ***SASKATCHEWAN***

CITY           SKY/WX    TMP DP  RH WIND       PRES   REMARKS
ESTEVAN        FOG       28  28 100 NE12      29.93R VSB 1/2 WCI  18
KINDERSLEY     FOG       28  28 100 E14       29.88S VSB 1/2 WCI  17
LLOYDMINSTER   FOG       27  27 100 SE13G18   29.89S VSB 1/2 WCI  16
PRINCE ALBERT  MOSUNNY   25  21  86 E9        30.05R WCI  15
REGINA         FOG       30  30 100 NE3       29.94R VSB 1/4
YORKTON        CLOUDY    32  32 100 E8        29.99S F


USA.gov is the U.S. government's official web portal to all federal, state and local government web resources and services.